CES1361 ZSPD-ZSAM

Flight info

Callsign CES1361
Flight time N/A
Altitude 25600
Route NXD81D NXD W131 AKDIM A470 ENVEN ENVEN8X
Aircraft A359/H-SDE2E3GHIJ3J4J5LM1ORWXY/LB1D1

Departure

Time 2026-05-05 14:29
Airport Shanghai Pudong International Airport (ZSPD)

Arrival

Time N/A
Airport Xiamen Gaoqi International Airport (ZSAM)
Time Latitude Longitude Altitude Speed Heading
2026-05-05 14:00 31.14675 121.79825 29 ft 0 kts 72°
2026-05-05 14:16 31.14673 121.79820 29 ft 3 kts 72°
2026-05-05 14:16 31.14665 121.79790 6 ft 4 kts 72°
2026-05-05 14:16 31.14658 121.79764 3 ft 2 kts 72°
2026-05-05 14:16 31.14647 121.79738 29 ft 4 kts 46°
2026-05-05 14:17 31.14627 121.79724 28 ft 4 kts 359°
2026-05-05 14:17 31.14602 121.79729 28 ft 4 kts 342°
2026-05-05 14:17 31.14587 121.79735 27 ft 1 kts 342°
2026-05-05 14:23 31.14589 121.79734 27 ft 2 kts 342°
2026-05-05 14:23 31.14626 121.79721 28 ft 10 kts 342°
2026-05-05 14:23 31.14710 121.79689 29 ft 15 kts 342°
2026-05-05 14:23 31.14818 121.79648 29 ft 18 kts 342°
2026-05-05 14:24 31.14944 121.79601 29 ft 20 kts 342°
2026-05-05 14:24 31.15087 121.79547 29 ft 23 kts 341°
2026-05-05 14:24 31.15184 121.79505 29 ft 5 kts 323°
2026-05-05 14:24 31.15199 121.79450 29 ft 10 kts 268°
2026-05-05 14:25 31.15177 121.79353 29 ft 14 kts 252°
2026-05-05 14:25 31.15149 121.79232 29 ft 16 kts 268°
2026-05-05 14:25 31.15233 121.79155 28 ft 18 kts 341°
2026-05-05 14:25 31.15366 121.79104 29 ft 24 kts 341°
2026-05-05 14:26 31.15545 121.79037 29 ft 29 kts 342°
2026-05-05 14:26 31.15742 121.78962 29 ft 31 kts 342°
2026-05-05 14:26 31.15903 121.78902 29 ft 0 kts 342°
2026-05-05 14:27 31.15930 121.78892 29 ft 9 kts 340°
2026-05-05 14:27 31.15961 121.78826 29 ft 10 kts 260°
2026-05-05 14:28 31.15933 121.78731 28 ft 14 kts 241°
2026-05-05 14:28 31.15851 121.78705 29 ft 13 kts 168°
2026-05-05 14:28 31.15744 121.78740 29 ft 24 kts 162°
2026-05-05 14:28 31.15436 121.78861 28 ft 81 kts 161°
2026-05-05 14:29 31.14686 121.79142 30 ft 145 kts 162°
2026-05-05 14:29 31.13643 121.79537 597 ft 157 kts 162°
2026-05-05 14:29 31.12634 121.79921 1555 ft 147 kts 164°
2026-05-05 14:29 31.11654 121.80277 2388 ft 149 kts 166°
2026-05-05 14:30 31.10612 121.80619 2858 ft 167 kts 166°
2026-05-05 14:30 31.09373 121.81025 2976 ft 202 kts 165°
2026-05-05 14:30 31.07948 121.81500 3095 ft 223 kts 165°
2026-05-05 14:30 31.06362 121.82035 3487 ft 247 kts 164°
2026-05-05 14:31 31.04697 121.82597 4355 ft 250 kts 164°
2026-05-05 14:31 31.02983 121.83128 5091 ft 261 kts 169°
2026-05-05 14:31 31.01148 121.83119 5630 ft 267 kts 193°
2026-05-05 14:31 30.99499 121.82148 5869 ft 270 kts 220°
2026-05-05 14:32 30.98416 121.80385 5920 ft 271 kts 246°
2026-05-05 14:32 30.97804 121.78324 5899 ft 272 kts 252°
2026-05-05 14:32 30.97262 121.76221 5901 ft 272 kts 252°
2026-05-05 14:32 30.96710 121.74116 5899 ft 272 kts 252°
2026-05-05 14:33 30.96299 121.71983 5895 ft 273 kts 265°
2026-05-05 14:33 30.96491 121.69771 6073 ft 274 kts 281°
2026-05-05 14:33 30.96905 121.67593 6662 ft 277 kts 282°
2026-05-05 14:33 30.97325 121.65410 7637 ft 278 kts 282°
2026-05-05 14:34 30.97744 121.63197 8630 ft 280 kts 281°
2026-05-05 14:34 30.98161 121.60966 9588 ft 284 kts 281°
2026-05-05 14:34 30.98582 121.58698 10433 ft 292 kts 281°
2026-05-05 14:34 30.99023 121.56298 10850 ft 314 kts 281°
2026-05-05 14:35 30.99490 121.53756 11442 ft 327 kts 281°
2026-05-05 14:35 30.99970 121.51147 12273 ft 332 kts 281°
2026-05-05 14:35 31.00457 121.48489 13128 ft 336 kts 282°
2026-05-05 14:35 31.00951 121.45813 13925 ft 342 kts 282°
2026-05-05 14:36 31.01456 121.43087 14647 ft 346 kts 282°
2026-05-05 14:36 31.01962 121.40335 15480 ft 348 kts 282°
2026-05-05 14:36 31.02470 121.37571 16259 ft 351 kts 282°
2026-05-05 14:36 31.02984 121.34771 17057 ft 354 kts 282°
2026-05-05 14:37 31.03501 121.31952 17874 ft 357 kts 282°
2026-05-05 14:37 31.04020 121.29117 18615 ft 360 kts 282°
2026-05-05 14:37 31.04546 121.26241 19290 ft 364 kts 282°
2026-05-05 14:37 31.05075 121.23343 19976 ft 368 kts 283°
2026-05-05 14:38 31.05611 121.20402 20708 ft 371 kts 283°
2026-05-05 14:38 31.06148 121.17451 21427 ft 375 kts 283°
2026-05-05 14:38 31.06648 121.14449 22125 ft 379 kts 279°
2026-05-05 14:38 31.06649 121.11362 22796 ft 386 kts 263°
2026-05-05 14:39 31.06026 121.08297 23479 ft 391 kts 256°
2026-05-05 14:39 31.05257 121.05234 24047 ft 395 kts 256°
2026-05-05 14:39 31.04486 121.02186 24606 ft 399 kts 256°
2026-05-05 14:39 31.03691 120.99020 25176 ft 403 kts 256°
2026-05-05 14:40 31.02913 120.95904 25516 ft 405 kts 256°
2026-05-05 14:40 31.02133 120.92787 25609 ft 393 kts 256°
2026-05-05 14:40 31.01381 120.89785 25622 ft 377 kts 256°
2026-05-05 14:40 31.00658 120.86880 25618 ft 372 kts 256°
2026-05-05 14:41 30.99939 120.83982 25608 ft 372 kts 256°
2026-05-05 14:41 30.99219 120.81092 25609 ft 372 kts 256°
2026-05-05 14:41 30.98497 120.78196 25610 ft 372 kts 256°
2026-05-05 14:41 30.97776 120.75302 25610 ft 372 kts 256°
2026-05-05 14:42 30.97055 120.72413 25608 ft 372 kts 256°
2026-05-05 14:42 30.96339 120.69549 25607 ft 372 kts 256°
2026-05-05 14:42 30.95617 120.66661 25607 ft 372 kts 256°
2026-05-05 14:42 30.94893 120.63774 25607 ft 372 kts 256°
2026-05-05 14:43 30.94166 120.60874 25599 ft 372 kts 256°
2026-05-05 14:43 30.93440 120.57983 25599 ft 372 kts 256°
2026-05-05 14:43 30.92713 120.55093 25599 ft 372 kts 256°
2026-05-05 14:43 30.91984 120.52198 25599 ft 372 kts 256°
2026-05-05 14:44 30.91257 120.49309 25593 ft 372 kts 256°
2026-05-05 14:44 30.90488 120.46425 25589 ft 377 kts 252°
2026-05-05 14:44 30.89302 120.43635 25586 ft 398 kts 239°
2026-05-05 14:44 30.87415 120.41140 25589 ft 422 kts 225°
2026-05-05 14:45 30.85101 120.38910 25583 ft 442 kts 220°
2026-05-05 14:45 30.82556 120.36766 25586 ft 459 kts 217°
2026-05-05 14:45 30.79866 120.34632 25586 ft 476 kts 216°
2026-05-05 14:45 30.77091 120.32462 25588 ft 483 kts 216°
2026-05-05 14:46 30.74302 120.30262 25588 ft 486 kts 217°
2026-05-05 14:46 30.71509 120.28029 25589 ft 488 kts 217°
2026-05-05 14:46 30.68718 120.25769 25590 ft 488 kts 217°
2026-05-05 14:46 30.65942 120.23505 25587 ft 488 kts 217°
2026-05-05 14:47 30.63206 120.21269 25588 ft 487 kts 217°
2026-05-05 14:47 30.60440 120.19005 25588 ft 486 kts 217°
2026-05-05 14:47 30.57678 120.16739 25588 ft 486 kts 217°
2026-05-05 14:47 30.54919 120.14475 25588 ft 486 kts 217°
2026-05-05 14:48 30.52156 120.12210 25588 ft 486 kts 217°
2026-05-05 14:48 30.49388 120.09947 25587 ft 487 kts 218°
2026-05-05 14:48 30.46615 120.07683 25584 ft 489 kts 217°
2026-05-05 14:48 30.43794 120.05465 25588 ft 490 kts 214°
2026-05-05 14:49 30.40882 120.03416 25587 ft 490 kts 213°
2026-05-05 14:49 30.37943 120.01416 25592 ft 490 kts 212°
2026-05-05 14:49 30.34989 119.99440 25591 ft 490 kts 212°
2026-05-05 14:49 30.32033 119.97478 25590 ft 490 kts 212°
2026-05-05 14:50 30.29077 119.95521 25594 ft 490 kts 212°
2026-05-05 14:50 30.26121 119.93563 25594 ft 490 kts 212°
2026-05-05 14:50 30.23161 119.91601 25593 ft 490 kts 212°
2026-05-05 14:50 30.20200 119.89637 25596 ft 490 kts 212°
2026-05-05 14:51 30.17247 119.87678 25595 ft 490 kts 212°
2026-05-05 14:51 30.14287 119.85714 25597 ft 490 kts 212°
2026-05-05 14:51 30.11372 119.83781 25597 ft 490 kts 212°
2026-05-05 14:51 30.08412 119.81821 25601 ft 490 kts 212°
2026-05-05 14:52 30.05451 119.79863 25594 ft 492 kts 212°
2026-05-05 14:52 30.02929 119.78185 25601 ft 492 kts 212°
2026-05-05 14:52 30.00020 119.76235 25604 ft 491 kts 212°
2026-05-05 14:52 29.97065 119.74250 25600 ft 491 kts 212°
2026-05-05 14:53 29.94116 119.72262 25607 ft 491 kts 212°
2026-05-05 14:53 29.91165 119.70273 25605 ft 491 kts 213°
2026-05-05 14:53 29.88172 119.68369 25603 ft 493 kts 207°